RH
63 65 66 66 66 66 67 69 70 71 69 67 65 66 69 79 73 70 73 80 67 69 65 66 65 61 60 61 65 65 62 66 64
66 67 68 69 70 71 72 72 73 73 72 71 71 72 81 82 70 76 79 75 67 68 63 71 72 72 72 67 64 66 68 62 64
71 68 70 70 71 73 74 74 73 74 74 75 76 79 84 81 69 68 72 75 67 68 68 70 73 72 72 74 76 77 76 74 72
74 72 70 72 73 76 77 77 76 77 75 72 70 76 78 89 66 65 80 73 65 67 65 73 72 70 72 74 73 73 72 74 76
82 82 78 74 77 78 78 77 77 76 72 62 66 66 68 72 74 77 78 64 66 64 72 69 64 64 68 70 68 68 71 72 73
86 86 85 84 80 77 77 76 76 76 73 65 61 62 55 74 73 77 69 56 59 68 68 64 62 64 67 66 66 66 67 68 70
81 88 90 86 83 82 72 68 72 73 67 62 54 37 42 69 76 75 66 62 58 67 65 63 61 62 63 62 61 60 62 63 64
96 98 96 96 90 84 74 63 58 50 49 37 32 33 42 72 73 65 57 49 55 63 61 59 58 57 59 56 57 57 57 58 59
95 96 95 93 90 82 71 62 49 37 29 30 27 27 40 66 68 80 71 61 61 60 57 55 54 52 50 50 50 51 51 51 54
80 85 86 84 82 68 65 52 39 29 27 27 27 26 31 56 71 88 72 61 59 55 52 49 45 46 46 46 47 47 50 51 52
75 77 71 69 64 61 54 39 32 31 29 29 27 27 32 39 69 78 77 60 56 50 45 43 42 42 43 45 48 50 50 52 54
75 71 70 63 58 40 32 32 36 37 32 33 31 29 29 32 50 63 63 64 59 40 37 37 38 40 40 42 47 50 52 54 56
69 67 65 51 49 45 41 41 41 42 40 37 34 35 34 31 36 48 55 57 51 46 37 33 35 36 36 40 44 46 51 55 56
65 63 57 48 47 43 36 42 42 42 40 34 32 40 40 41 29 36 38 40 43 47 40 33 39 33 36 39 44 44 47 52 54
63 60 52 50 46 44 41 40 46 44 42 29 35 44 43 41 36 35 31 38 36 38 37 45 38 33 33 36 40 42 45 48 52
60 57 50 48 40 42 38 45 43 45 46 45 43 50 40 41 41 43 40 37 35 37 40 38 39 38 33 33 37 41 43 46 50
56 49 47 45 45 41 38 39 46 47 46 40 53 46 40 39 35 48 32 32 35 33 29 31 32 38 43 45 36 36 39 45 50
62 48 46 47 46 46 44 45 45 50 46 38 37 45 47 44 42 42 38 32 38 37 37 35 33 36 40 42 41 38 38 43 49
61 56 54 61 59 44 47 43 46 48 48 45 34 37 36 40 35 42 41 38 32 38 40 41 38 36 42 43 46 41 38 42 48
55 54 54 49 53 61 44 44 39 43 44 50 46 40 46 44 49 49 46 41 38 38 44 43 41 39 41 48 47 42 38 44 48
Wind_Speed
14 14 14 14 12 12 11 11 10 9 8 6 4 2 3 5 4 3 7 4 5 4 4 1 2 3 4 4 1 4 5 4 4
14 13 13 12 12 11 10 9 9 8 7 5 3 3 5 4 4 4 4 4 7 5 5 7 5 7 3 4 4 5 6 6 6
13 12 12 11 10 10 9 8 8 6 5 3 2 3 6 6 4 4 3 8 9 10 10 10 12 13 10 15 10 10 10 7 7
14 13 11 10 10 9 8 7 6 6 5 3 1 4 4 4 4 5 3 10 9 10 7 11 13 13 13 15 15 15 14 15 15
14 11 10 10 9 9 7 6 6 5 4 1 3 6 8 7 4 4 4 8 10 8 12 12 11 11 12 13 13 13 14 15 15
11 9 10 11 10 8 6 6 6 4 1 3 6 7 4 5 3 3 7 6 8 10 11 10 11 11 13 12 12 12 12 13 12
7 8 11 10 9 8 7 5 5 4 1 2 3 3 5 4 3 3 10 9 7 10 11 11 10 10 10 11 11 11 11 11 11
4 3 3 3 5 3 3 3 2 4 3 3 3 4 5 3 3 5 8 6 7 10 10 10 10 10 10 10 10 11 10 10 10
6 4 5 4 3 4 3 2 4 5 4 4 5 5 4 3 2 3 10 8 8 9 9 10 10 10 9 9 10 10 10 9 9
6 5 5 5 4 4 3 3 4 4 5 4 4 4 5 5 3 2 10 9 9 8 8 8 8 9 10 10 10 10 10 10 9
5 5 5 4 5 4 4 4 4 3 3 3 3 4 5 5 5 3 4 9 9 7 7 7 8 9 9 10 10 10 10 10 11
7 6 5 4 4 6 5 4 4 4 2 4 2 2 4 5 5 4 3 5 7 5 5 6 8 8 9 10 10 11 11 11 11
8 6 5 5 5 4 4 3 4 4 3 2 2 2 3 3 5 5 4 3 3 3 4 5 7 7 9 11 11 11 10 11 12
8 6 5 6 5 5 4 3 3 2 2 2 1 1 2 2 3 5 6 6 5 3 3 1 8 8 11 11 13 11 10 12 11
8 6 7 6 5 5 4 4 4 2 1 2 2 1 1 3 3 4 3 3 4 4 2 3 2 6 9 10 12 13 12 11 11
10 7 6 5 6 6 6 4 4 3 2 2 3 3 2 1 2 3 3 4 4 3 3 2 1 1 5 6 11 13 12 12 13
10 10 7 7 6 6 6 6 3 2 2 3 2 2 4 3 2 0 2 3 2 3 3 2 2 1 2 3 11 10 11 14 14
9 9 8 7 5 6 6 5 6 4 1 3 4 2 3 2 3 2 1 2 1 2 3 4 4 3 3 4 5 7 11 14 16
9 8 9 8 5 5 4 5 4 5 4 1 2 3 4 2 3 3 2 2 3 3 3 3 4 4 4 7 8 10 13 16 17
9 9 10 9 6 5 5 6 5 3 4 3 2 2 2 2 3 4 4 4 3 3 3 4 4 6 6 5 7 13 15 17 20
Wind_Direction
120 117 115 113 111 108 105 104 102 98 95 93 83 39 348 339 320 154 115 115 76 54 40 88 335 320 309 314 236 264 285 273 278
127 125 121 117 114 111 109 108 105 103 101 95 69 348 335 340 357 67 98 94 53 48 46 33 30 40 352 289 279 297 302 293 281
137 135 130 125 120 116 111 111 110 110 102 82 31 336 338 5 72 84 47 68 64 58 54 57 57 56 48 53 56 46 28 341 313
148 145 141 135 130 125 120 114 113 112 104 92 23 357 347 66 75 72 33 65 69 58 55 71 62 56 54 52 52 49 45 44 44
154 153 150 142 138 133 127 124 126 130 125 135 38 7 28 102 85 59 44 65 76 65 69 63 58 55 59 53 51 46 50 49 49
150 160 156 149 147 142 138 139 134 113 75 352 41 61 69 91 83 72 64 72 75 84 70 65 61 63 64 52 46 43 44 46 42
152 157 160 157 154 150 154 150 140 135 208 359 57 67 66 93 82 71 70 65 80 88 75 66 58 59 59 49 42 33 35 34 37
141 150 167 153 158 158 155 141 147 138 123 106 61 54 81 93 72 71 72 70 109 87 74 65 58 55 49 42 38 31 25 26 22
162 170 175 165 177 168 168 145 124 90 82 79 76 61 78 112 88 67 79 77 85 90 74 65 59 53 44 37 26 22 13 10 8
172 168 166 180 163 173 141 130 104 93 76 68 89 74 85 119 103 78 90 93 90 84 72 60 51 44 32 24 14 9 4 359 354
172 154 162 151 156 140 142 136 115 99 90 61 76 101 85 110 126 120 96 107 104 88 69 52 35 24 15 8 4 3 358 356 350
148 152 146 150 123 120 123 95 92 77 51 61 55 100 113 111 141 137 120 105 105 98 75 37 19 14 7 1 0 356 352 351 346
148 149 146 142 124 124 108 113 82 87 67 6 8 71 89 97 135 139 135 126 108 100 81 31 13 1 349 352 350 348 355 347 344
147 141 146 140 128 132 135 75 107 79 35 339 11 130 114 91 124 135 147 156 144 142 175 3 20 12 352 345 343 344 343 340 338
138 145 148 140 133 127 115 115 64 98 36 339 356 271 119 109 135 156 153 155 151 146 147 64 14 9 345 337 338 332 329 329 332
147 148 141 143 146 147 138 115 111 38 10 62 4 10 355 128 197 168 156 167 178 169 127 155 196 332 347 342 329 323 321 324 319
152 148 153 149 134 139 143 134 129 105 17 125 94 22 339 335 306 195 166 134 126 146 170 242 277 215 221 268 324 314 311 312 312
148 145 146 139 132 151 148 145 138 136 357 76 141 102 223 316 332 20 72 47 59 24 353 332 307 267 252 289 288 282 298 305 304
146 134 137 133 131 139 144 145 138 129 152 73 53 85 138 163 326 329 310 49 52 5 326 334 332 292 273 269 257 266 294 302 306
149 147 152 141 142 139 140 126 122 125 136 144 139 84 62 87 129 268 306 344 329 326 344 313 311 319 313 307 283 285 297 303 306